Santiago de Cuba, Cuba

2:49 PM CST on November 19, 2017 (GMT -0500)
Antonio Maceo International

Weather History for MUCU - November, 2017

Change the Weather History Date:

Tuesday, November 14, 2017

  Actual Average Record
Temperature  
Mean Temperature 76 °F -  
Max Temperature 80 °F 82 °F 91 °F (2013)
Min Temperature 73 °F 70 °F 68 °F (2004)
Cooling Degree Days 12    
Growing Degree Days 26 (Base 50)    
Moisture  
Dew Point 73 °F    
Average Humidity 92    
Maximum Humidity 100    
Minimum Humidity 65    
Precipitation  
Precipitation 0.28 in - - ()
Sea Level Pressure  
Sea Level Pressure 29.82 in    
Wind  
Wind Speed 3 mph ()    
Max Wind Speed 12 mph    
Max Gust Speed -    
Visibility 5.4 miles    
Events Rain    
Averages and records for this station are not official NWS values.
T = Trace of Precipitation, MM = Missing Value Source: Averaged Metar Reports

Daily Weather History Graph

Daily Weather History Graph

Search for Another Location

Airport or City:

Trip Planner

Search our weather history database for the weather conditions in past years. The results will help you decide how hot, cold, wet, or windy it might be!

Date:

Astronomy

Nov. 14, 2017 Rise Set
Actual Time 6:11 AM CST 5:23 PM CST
Civil Twilight 5:48 AM CST 5:46 PM CST
Nautical Twilight 5:21 AM CST 6:13 PM CST
Astronomical Twilight 4:55 AM CST 6:39 PM CST
Moon 2:49 AM CST (11/14) 3:12 PM CST (11/14)
Length of Visible Light 11h 58m
Length of Day
11h 12m
Waning Crescent, 14% of the Moon is Illuminated
Nov 14
Waning Crescent
Nov 18
New
Nov 26
First Quarter
Dec 3
Full
Dec 10
Last Quarter

Hourly Weather History & Observations

Time (CST) Temp. Heat Index Dew Point Humidity Pressure Visibility Wind Dir Wind Speed Gust Speed Precip Events Conditions
12:50 AM 75.2 °F - 71.6 °F 89% 29.83 in 5.6 mi Variable 1.2 mph - N/A   Mostly Cloudy
1:00 AM 75 °F - 72 °F 86% 29.86 in 6 mi ENE 2.2 mph - - Rain Light Rain
1:51 AM 75.2 °F - 71.6 °F 89% 29.83 in 5.6 mi Variable 2.3 mph - N/A   Mostly Cloudy
2:51 AM 73.4 °F - 73.4 °F 100% 29.83 in 5.6 mi NE 3.5 mph - N/A   Mostly Cloudy
3:50 AM 73.4 °F - 73.4 °F 100% 29.80 in 5.6 mi ENE 2.3 mph - N/A   Mostly Cloudy
4:00 AM 73 °F - 72 °F 98% 29.82 in 6 mi ENE 2.2 mph - -   Scattered Clouds
4:51 AM 73.4 °F - 71.6 °F 94% 29.80 in 5.6 mi NNE 4.6 mph - N/A   Mostly Cloudy
5:52 AM 73.4 °F - 71.6 °F 94% 29.83 in 5.6 mi North 4.6 mph - N/A   Mostly Cloudy
6:51 AM 73.4 °F - 73.4 °F 100% 29.83 in 5.6 mi North 4.6 mph - N/A   Mostly Cloudy
7:50 AM 75.2 °F - 75.2 °F 100% 29.86 in 5.6 mi North 4.6 mph - N/A   Mostly Cloudy
8:51 AM 77.0 °F - 75.2 °F 94% 29.89 in 5.6 mi North 4.6 mph - N/A   Mostly Cloudy
9:51 AM 78.8 °F - 75.2 °F 89% 29.89 in 5.6 mi Variable 2.3 mph - N/A   Mostly Cloudy
10:00 AM 78 °F - 74 °F 85% 29.89 in 6 mi North 2.2 mph - -   Partly Cloudy
10:51 AM 78.8 °F - 75.2 °F 89% 29.86 in 5.0 mi Variable 2.3 mph - N/A Rain Light Rain
11:51 AM 80.6 °F 84.6 °F 71.6 °F 74% 29.83 in 5.6 mi Variable 1.2 mph - N/A   Mostly Cloudy
12:51 PM 80.6 °F 84.6 °F 71.6 °F 74% 29.80 in 5.6 mi Variable 2.3 mph - N/A   Mostly Cloudy
1:00 PM 80 °F - 71 °F 66% 29.82 in 6 mi WNW 2.2 mph - -   Partly Cloudy
1:52 PM 80.6 °F 83.2 °F 68.0 °F 65% 29.77 in 5.6 mi SSE 3.5 mph - N/A   Mostly Cloudy
2:16 PM 77.0 °F - 71.6 °F 83% 29.77 in 3.1 mi SSE 11.5 mph - N/A Rain Rain
2:21 PM 75.2 °F - 73.4 °F 94% 29.80 in 1.2 mi SSE 10.4 mph - N/A Rain Heavy Rain
2:53 PM 75.2 °F - 73.4 °F 94% 2.95 in 4.3 mi SE 5.8 mph - N/A Rain Light Rain
3:52 PM 75.2 °F - 73.4 °F 94% 29.77 in 5.6 mi North 3.5 mph - N/A   Mostly Cloudy
4:00 PM 75 °F - 74 °F 95% 29.78 in 6 mi North 2.2 mph - -   Partly Cloudy
4:51 PM 75.2 °F - 73.4 °F 94% 29.77 in 5.6 mi NE 3.5 mph - N/A   Overcast
5:51 PM 73.4 °F - 73.4 °F 100% 29.77 in 5.6 mi North 3.5 mph - N/A   Overcast
6:50 PM 73.4 °F - 73.4 °F 100% 29.80 in 5.6 mi Variable 2.3 mph - N/A   Mostly Cloudy
7:00 PM 74 °F - 73 °F 97% 29.80 in 6 mi NNE 2.2 mph - -   Partly Cloudy
7:50 PM 73.4 °F - 73.4 °F 100% 29.80 in 5.6 mi NNW 3.5 mph - N/A   Mostly Cloudy
8:51 PM 73.4 °F - 73.4 °F 100% 29.80 in 5.6 mi NNW 4.6 mph - N/A   Mostly Cloudy
9:51 PM 73.4 °F - 73.4 °F 100% 29.80 in 5.6 mi North 4.6 mph - N/A   Mostly Cloudy
10:50 PM 73.4 °F - 73.4 °F 100% 29.80 in 5.6 mi NNW 4.6 mph - N/A   Mostly Cloudy
11:50 PM 73.4 °F - 73.4 °F 100% 29.80 in 5.6 mi North 4.6 mph - N/A   Mostly Cloudy